Flag for Germany Weather past 2 weeks in Varel, Lower Saxony, Germany

Now
64 °F

Mild.


Feels Like: 64 °F
Forecast: 58 / 71 °F
Wind: 8 mph from West

Location: Wittmundhaven

Current Time: Jul 5, 2015 at 2:25:39 AM

Latest Report: Jul 5, 2015 at 1:20 AM


Visibility: 1 mi

Pressure: 30.09 "Hg

Humidity: 94%

Dew point: 63 °F

Location of VarelLocation

Historic Weather in Varel — Graph

°F

Varel temperature yesterday

Maximum temperature yesterday: 95 °F (at 4:20 PM)
Minimum temperature yesterday: 63 °F (at 2:20 AM)
Average temperature yesterday: 76 °F

Past Weeks' High & Low Weather Summary

 TemperatureHumidityPressure
High95 °F (Jul 4, 4:20 PM)100% (Jun 28, 3:20 AM)30.27 "Hg (Jun 28, 3:20 AM)
Low46 °F (Jun 21, 12:20 AM)33% (Jul 1, 4:20 PM)29.65 "Hg (Jun 22, 7:20 PM)
Average63 °F75%30.06 "Hg
* Reported Jun 20 12:20 AM — Jul 5 12:20 AM, Varel, Weather by CustomWeather, © 2015

Note: Actual official high and low records may vary slightly from our data, if they occured in-between our weather recording intervals... More about our weather records

Advertising

Varel weather history for previous 24 hours

 ConditionsComfort  
Time TempWeatherWind HumidityBarometerVisibility
12:20 AM
Sun, Jul 5
66 °FMild.3 mph94%30.09 "Hg2 mi
11:20 PM
Sat, Jul 4
68 °FMild.6 mph88%30.09 "Hg2 mi
10:20 PM72 °FMild.10 mph78%30.09 "Hg4 mi
9:20 PM75 °FMild.10 mph78%30.09 "Hg4 mi
8:20 PM81 °FWarm.9 mph66%30.07 "Hg5 mi
7:20 PM86 °FWarm.17 mph59%30.04 "Hg6 mi
6:20 PM88 °FWarm.20 mph59%30.04 "Hg6 mi
5:20 PM91 °FHot.15 mph52%30.04 "Hg6 mi
4:20 PM95 °FExtremely hot.8 mph41%30.04 "HgN/A
3:20 PM90 °FHot.9 mph52%30.04 "Hg6 mi
2:20 PM88 °FWarm.12 mph55%30.04 "Hg6 mi
1:20 PM86 °FWarm.10 mph59%30.07 "Hg6 mi
12:20 PM84 °FWarm.9 mph58%30.07 "Hg5 mi
11:20 AM82 °FWarm.10 mph55%30.07 "Hg4 mi
10:20 AM79 °FWarm.13 mph61%30.09 "Hg4 mi
9:20 AM75 °FMild.12 mph69%30.09 "Hg4 mi
8:20 AM73 °FMild.10 mph69%30.12 "Hg5 mi
7:20 AM72 °FMild.7 mph78%30.12 "Hg4 mi
6:20 AM66 °FMild.5 mph94%30.12 "Hg2 mi
5:20 AM64 °FMild.3 mph94%30.15 "Hg1 mi
4:20 AM64 °FMild.6 mph94%30.15 "Hg2 mi
3:20 AM64 °FMild.7 mph88%30.18 "Hg3 mi
2:20 AM63 °FMild.5 mph94%30.21 "Hg4 mi
Weather by CustomWeather, © 2015

See weather overviewHow to use our weather pages